SENTINEL-2A

Last updated on Mon Oct 14 2024 00:02:24 GMT+0000 (Coordinated Universal Time)

1 40697U 15028A 24287.49421178 .00000772 00000+0 31118-3 0 9993 2 40697 98.5682 0.0535 0001143 95.2719 264.8594 14.30811416486253
UTC large
Height (km)
Speed (km/s)
/
Latitude / Longitude
Inclination (degrees)
Orbital Period (minutes)
Azimuth
Elevation
Range (km)
Doppler Factor

Next 0 passes for location: London (51.5072 / 0.1276)

Sorry there are no passes over London.